Starlink 34350

operational
NORAD ID: 64276 Int'l Des: 2025-120 Owner: SPXS Country: US Constellation: starlink
LEOCIRCULAR

About Starlink 34350

Description loading...

Live Position

Loading 3D Globe...

Upcoming Passes

Altitude History

Altitude vs Time

uPlot chart will show altitude changes over time

Two-Line Element Set

1 64276U 25120W 26095.11069449 .00027668 00000-0 94422-3 0 9994
2 64276 53.1613 353.8065 0001612 39.1031 321.0086 15.30151540 47964
Epoch: Apr 5, 2026 • Age: 12 hours

Current Status

Altitude 494.5 km
Velocity 7.62 km/s
Sub-Earth Point -53.24°S, 158.48°W
Launch Date Jun 4, 2025
Age 0.8 years
Type internet

Technical Details

Classification Payload
Mass 575.00 kg
Dry Mass 530.00 kg
Total Mass 575.00 kg
Length 0.30 m
Diameter 4.10 m
Span 29.00 m
Shape Box + pan
Manufacturer SPXS
Bus Type Starlink V2MO
Phase Status In Orbit
Owner/State SPXS/US

Large Constellations

Loading constellations...